Location: Boiro
(42.6475°N, 8.8834°W)
Time: 17:34:06
(UTC+01:00)

Tiros 1 - Pass Details

Date: 11 December 2021
Orbit: 630 x 663 km, 48.4° (Epoch: 20 January)

Event Time Altitude Azimuth Distance (km) Brightness Sun altitude
Rises 17:37:46 0° 240° (WSW) 2,905 13.4 2.9°
Reaches altitude 10° 17:40:04 10° 240° (WSW) 2,001 12.2 2.5°
Maximum altitude 17:44:40 86° 154° (SSE) 637 7.2 1.8°
Drops below altitude 10° 17:49:20 10° 64° (ENE) 2,020 9.1 1.1°
Sets 17:51:40 0° 64° (ENE) 2,935 9.8 0.8°
